TimeCST,TemperatureF,Dew PointF,Humidity,Sea Level PressureIn,VisibilityMPH,Wind Direction,Wind SpeedMPH,Gust SpeedMPH,PrecipitationIn,Events,Conditions,WindDirDegrees,DateUTC
12:15 AM,19.2,14.0,80,30.31,10.0,Calm,Calm,-,N/A,,Clear,0,2012-11-13 06:15:00
12:35 AM,18.5,13.8,82,30.32,10.0,Calm,Calm,-,N/A,,Clear,0,2012-11-13 06:35:00
12:55 AM,18.0,12.4,79,30.32,10.0,Calm,Calm,-,N/A,,Clear,0,2012-11-13 06:55:00
1:15 AM,15.4,10.9,82,30.31,10.0,Calm,Calm,-,N/A,,Clear,0,2012-11-13 07:15:00
1:35 AM,18.0,13.1,81,30.32,10.0,Calm,Calm,-,N/A,,Clear,0,2012-11-13 07:35:00
1:55 AM,16.3,11.3,81,30.31,10.0,Calm,Calm,-,N/A,,Clear,0,2012-11-13 07:55:00
2:15 AM,16.3,12.2,84,30.32,10.0,Calm,Calm,-,N/A,,Clear,0,2012-11-13 08:15:00
2:35 AM,18.0,13.1,81,30.31,10.0,Calm,Calm,-,N/A,,Clear,0,2012-11-13 08:35:00
2:55 AM,16.9,11.3,79,30.31,10.0,Calm,Calm,-,N/A,,Clear,0,2012-11-13 08:55:00
3:35 AM,16.7,12.2,82,30.30,10.0,Calm,Calm,-,N/A,,Clear,0,2012-11-13 09:35:00
3:55 AM,16.5,12.6,84,30.30,10.0,Calm,Calm,-,N/A,,Clear,0,2012-11-13 09:55:00
4:15 AM,15.8,11.8,84,30.29,10.0,Calm,Calm,-,N/A,,Clear,0,2012-11-13 10:15:00
4:35 AM,14.7,10.8,84,30.28,10.0,Calm,Calm,-,N/A,,Clear,0,2012-11-13 10:35:00
4:55 AM,15.6,11.8,85,30.28,10.0,Calm,Calm,-,N/A,,Clear,0,2012-11-13 10:55:00
5:15 AM,16.3,12.2,84,30.29,10.0,SE,4.6,-,N/A,,Clear,130,2012-11-13 11:15:00
5:35 AM,19.4,12.2,74,30.28,10.0,ESE,3.5,-,N/A,,Clear,120,2012-11-13 11:35:00
5:55 AM,19.9,11.3,69,30.28,10.0,Calm,Calm,-,N/A,,Clear,0,2012-11-13 11:55:00
6:15 AM,16.9,12.0,81,30.27,10.0,Calm,Calm,-,N/A,,Clear,0,2012-11-13 12:15:00
6:35 AM,17.4,11.8,79,30.28,10.0,Calm,Calm,-,N/A,,Clear,0,2012-11-13 12:35:00
6:55 AM,18.0,12.6,79,30.28,10.0,Calm,Calm,-,N/A,,Clear,0,2012-11-13 12:55:00
7:15 AM,19.6,12.2,73,30.28,10.0,ESE,3.5,-,N/A,,Clear,120,2012-11-13 13:15:00
7:35 AM,19.4,12.6,75,30.27,10.0,Calm,Calm,-,N/A,,Clear,0,2012-11-13 13:35:00
7:55 AM,21.0,15.6,80,30.27,10.0,Calm,Calm,-,N/A,,Clear,0,2012-11-13 13:55:00
8:15 AM,23.0,18.0,81,30.27,10.0,Calm,Calm,-,N/A,,Clear,0,2012-11-13 14:15:00
8:35 AM,27.0,21.4,79,30.27,10.0,ESE,3.5,-,N/A,,Clear,120,2012-11-13 14:35:00
8:55 AM,30.6,18.3,60,30.28,10.0,SE,3.5,-,N/A,,Clear,130,2012-11-13 14:55:00
9:15 AM,32.2,20.5,62,30.27,10.0,SSE,4.6,-,N/A,,Clear,150,2012-11-13 15:15:00
9:35 AM,35.1,21.4,57,30.27,10.0,South,4.6,-,N/A,,Clear,170,2012-11-13 15:35:00
9:55 AM,38.7,20.7,48,30.27,10.0,South,5.8,-,N/A,,Clear,180,2012-11-13 15:55:00
10:15 AM,41.2,17.8,39,30.27,10.0,South,5.8,-,N/A,,Scattered Clouds,180,2012-11-13 16:15:00
10:35 AM,42.4,16.9,36,30.27,10.0,SSW,9.2,-,N/A,,Mostly Cloudy,200,2012-11-13 16:35:00
10:55 AM,43.0,17.8,36,30.26,10.0,South,5.8,-,N/A,,Overcast,180,2012-11-13 16:55:00
11:15 AM,45.7,18.7,34,30.25,10.0,South,6.9,-,N/A,,Overcast,170,2012-11-13 17:15:00
11:35 AM,48.4,16.0,27,30.25,10.0,South,5.8,-,N/A,,Overcast,190,2012-11-13 17:35:00
11:55 AM,50.0,14.5,24,30.23,10.0,SSW,9.2,-,N/A,,Scattered Clouds,200,2012-11-13 17:55:00
12:15 PM,49.5,14.5,25,30.22,10.0,South,8.1,-,N/A,,Scattered Clouds,180,2012-11-13 18:15:00
12:35 PM,49.5,17.1,28,30.21,10.0,SSE,9.2,-,N/A,,Mostly Cloudy,160,2012-11-13 18:35:00
12:55 PM,49.8,17.1,27,30.20,10.0,SSE,6.9,-,N/A,,Overcast,150,2012-11-13 18:55:00
1:15 PM,50.0,18.9,29,30.19,10.0,SSE,6.9,-,N/A,,Overcast,160,2012-11-13 19:15:00
1:35 PM,50.9,18.9,28,30.20,10.0,South,11.5,-,N/A,,Overcast,180,2012-11-13 19:35:00
1:55 PM,51.3,19.6,29,30.19,10.0,South,8.1,-,N/A,,Mostly Cloudy,170,2012-11-13 19:55:00
2:15 PM,52.9,19.8,27,30.19,10.0,South,8.1,-,N/A,,Scattered Clouds,180,2012-11-13 20:15:00
2:35 PM,52.9,19.2,27,30.18,10.0,South,9.2,-,N/A,,Clear,180,2012-11-13 20:35:00
2:55 PM,51.8,19.2,28,30.18,10.0,South,10.4,-,N/A,,Clear,180,2012-11-13 20:55:00
3:15 PM,51.3,20.1,29,30.18,10.0,South,10.4,-,N/A,,Clear,170,2012-11-13 21:15:00
3:35 PM,50.9,20.3,30,30.18,10.0,SSE,5.8,-,N/A,,Clear,160,2012-11-13 21:35:00
3:55 PM,50.0,21.0,32,30.18,10.0,SSE,4.6,-,N/A,,Scattered Clouds,160,2012-11-13 21:55:00
4:15 PM,49.3,21.0,33,30.18,10.0,SE,4.6,-,N/A,,Overcast,140,2012-11-13 22:15:00
4:35 PM,48.9,21.9,35,30.18,10.0,Calm,Calm,-,N/A,,Mostly Cloudy,0,2012-11-13 22:35:00
4:55 PM,48.2,23.2,37,30.18,10.0,SSE,4.6,-,N/A,,Scattered Clouds,160,2012-11-13 22:55:00
5:15 PM,47.7,23.7,39,30.18,10.0,Calm,Calm,-,N/A,,Scattered Clouds,0,2012-11-13 23:15:00
5:35 PM,46.4,23.7,41,30.18,10.0,Calm,Calm,-,N/A,,Scattered Clouds,0,2012-11-13 23:35:00
5:55 PM,46.2,23.0,40,30.19,10.0,Calm,Calm,-,N/A,,Mostly Cloudy,0,2012-11-13 23:55:00
6:15 PM,46.8,22.3,38,30.20,10.0,Calm,Calm,-,N/A,,Overcast,0,2012-11-14 00:15:00
6:35 PM,46.6,22.1,38,30.21,10.0,Calm,Calm,-,N/A,,Overcast,0,2012-11-14 00:35:00
6:55 PM,46.8,22.1,38,30.21,10.0,Calm,Calm,-,N/A,,Overcast,0,2012-11-14 00:55:00
7:15 PM,45.1,23.2,42,30.22,10.0,Calm,Calm,-,N/A,,Mostly Cloudy,0,2012-11-14 01:15:00
7:35 PM,44.8,22.8,42,30.22,10.0,Calm,Calm,-,N/A,,Overcast,0,2012-11-14 01:35:00
7:55 PM,41.5,24.1,50,30.23,10.0,Calm,Calm,-,N/A,,Scattered Clouds,0,2012-11-14 01:55:00
8:15 PM,39.0,24.6,56,30.23,10.0,North,3.5,-,N/A,,Clear,360,2012-11-14 02:15:00
8:35 PM,37.4,24.6,60,30.24,10.0,Calm,Calm,-,N/A,,Clear,0,2012-11-14 02:35:00
8:55 PM,38.7,23.0,53,30.25,10.0,NNW,6.9,-,N/A,,Clear,330,2012-11-14 02:55:00
9:15 PM,36.3,22.5,57,30.25,10.0,NNW,5.8,-,N/A,,Clear,330,2012-11-14 03:15:00
9:35 PM,36.7,21.9,55,30.25,10.0,West,4.6,-,N/A,,Scattered Clouds,270,2012-11-14 03:35:00
9:55 PM,33.8,21.7,61,30.25,10.0,Calm,Calm,-,N/A,,Scattered Clouds,0,2012-11-14 03:55:00
10:15 PM,33.4,21.2,61,30.25,10.0,Calm,Calm,-,N/A,,Scattered Clouds,0,2012-11-14 04:15:00
10:35 PM,32.4,21.6,64,30.25,10.0,Calm,Calm,-,N/A,,Clear,0,2012-11-14 04:35:00
10:55 PM,27.3,19.9,74,30.25,10.0,Calm,Calm,-,N/A,,Clear,0,2012-11-14 04:55:00
11:15 PM,28.2,21.2,75,30.26,10.0,Calm,Calm,-,N/A,,Clear,0,2012-11-14 05:15:00
11:35 PM,26.1,19.8,77,30.26,10.0,North,3.5,-,N/A,,Clear,360,2012-11-14 05:35:00
11:55 PM,25.3,19.4,78,30.25,10.0,Calm,Calm,-,N/A,,Clear,0,2012-11-14 05:55:00